www.pogodaiklimat.ru
ПОГОДА в Велюни

Архив погоды в Велюни (Польша)

Время
(UTC), дата
16 21.05
17 21.05
18 21.05
19 21.05
20 21.05
21 21.05
22 21.05
23 21.05
00 22.05
01 22.05
02 22.05
03 22.05
04 22.05
05 22.05
06 22.05
07 22.05
08 22.05
09 22.05
10 22.05
11 22.05
12 22.05
13 22.05
14 22.05
15 22.05
16 22.05
17 22.05
18 22.05
19 22.05
20 22.05
21 22.05
22 22.05
23 22.05
00 23.05
01 23.05
02 23.05
03 23.05
04 23.05
05 23.05
06 23.05
07 23.05
08 23.05
09 23.05
10 23.05
11 23.05
12 23.05
13 23.05
14 23.05
15 23.05
16 23.05
17 23.05
18 23.05
19 23.05
20 23.05
21 23.05
22 23.05
23 23.05
00 24.05
01 24.05
02 24.05
03 24.05
04 24.05
05 24.05
06 24.05
07 24.05
08 24.05
09 24.05
10 24.05
11 24.05
12 24.05
13 24.05
14 24.05
15 24.05
16 24.05
17 24.05
18 24.05
19 24.05
20 24.05
21 24.05
22 24.05
23 24.05
00 25.05
01 25.05
02 25.05
03 25.05
04 25.05
05 25.05
06 25.05
07 25.05
08 25.05
09 25.05
10 25.05
11 25.05
12 25.05
13 25.05
14 25.05
15 25.05
16 25.05
17 25.05
18 25.05
19 25.05
20 25.05
21 25.05
22 25.05
23 25.05
00 26.05
01 26.05
02 26.05
03 26.05
04 26.05
05 26.05
06 26.05
07 26.05
08 26.05
09 26.05
10 26.05
11 26.05
12 26.05
13 26.05
14 26.05
15 26.05
16 26.05
17 26.05
18 26.05
19 26.05
20 26.05
21 26.05
22 26.05
23 26.05
00 27.05
01 27.05
02 27.05
03 27.05
04 27.05
05 27.05
06 27.05
07 27.05
08 27.05
09 27.05
10 27.05
11 27.05
12 27.05
13 27.05
14 27.05
15 27.05
16 27.05
17 27.05
18 27.05
19 27.05
20 27.05
21 27.05
22 27.05
23 27.05
00 28.05
01 28.05
02 28.05
03 28.05
04 28.05
05 28.05
06 28.05
07 28.05
08 28.05
09 28.05
10 28.05
11 28.05
12 28.05
13 28.05
14 28.05
15 28.05
Ветер
(напр.,м/с)
Видим. Явления Облачность Т
(С)
Тd
(С)
f
(%)
Тe
(С)
Тes
(С)
Комфортность P
(гПа)
Po
(гПа)
Тmin
(С)
Tmax
(С)
R
(мм)
R24
(мм)
S
(см)
В 3 35 км 9/3 2000 м
[Cu med, cong Ac As Cs]
+25.1 +9.8 38 +26 +27 жарко 1009.5 986.5
В 3 30 км 9/1 2000 м
[Sc diur, vesp Ac As Cs]
+24.6 +10.8 42 +26 +26 жарко 1009.3 986.3
В 2 24 км 9/0
[Ac trans Cs]
+23.3 +11.4 47 +26 +26 жарко 1009.2 986.1 +18.7 +27.0
В 2 45 км н/о +22.1 +11.2 50 +24 +24 комфорт 1009.5 986.3
В 2 35 км н/о +21.2 +11.2 53 +23 +23 комфорт 1009.7 986.4
В 2 40 км н/о +20.8 +11.7 56 +24 +24 комфорт 1009.3 986.0
В 2 40 км н/о +20.4 +11.6 57 +23 +23 комфорт 1009.4 986.0
В 3 45 км н/о +20.0 +11.7 59 +22 +22 комфорт 1009.2 985.8
В 2 45 км н/о +19.1 +12.1 64 +21 +21 комфорт 1009.1 985.7
СВ 2 45 км н/о +18.2 +12.0 67 +19 +19 1008.5 985.0
В 2 45 км н/о +17.3 +12.0 71 +18 +18 1008.5 984.9
В 2 35 км н/о +16.8 +11.9 73 +17 +17 1008.4 984.8
В 2 35 км н/о +16.7 +12.0 74 +17 +17 1008.4 984.8
В 2 30 км н/о +18.2 +12.6 70 +19 +19 1008.4 984.9
ЮВ 3 30 км 1/0
[Ac trans Ci fib]
+19.9 +13.6 67 +22 +26 комфорт 1008.5 985.1 +16.4 +23.3
Ю 2 30 км 4/0
[Ac cast Ci fib]
+21.1 +13.8 63 +24 +30 комфорт 1008.7 985.4
Ю 2 27 км 5/0
[Ac cast Ci fib]
+23.2 +14.2 57 +27 +34 душно 1008.4 985.3
Ю 1 27 км 6/3 1000 м
[Cu med, cong Ac trans]
+24.5 +14.0 52 +27 +36 жарко 1008.4 985.4
Ю 2 28 км 9/6 1000 м
[Cb calv Ac trans]
+23.9 +13.4 52 +26 +30 жарко 1008.3 985.2
ЮЗ 2 30 км в посл. час гроза 8/5 1000 м
[Cb cap Ac cuf]
+24.4 +12.4 47 +26 +31 жарко 1007.9 984.9
ЮЗ 3 35 км гроза без осадков 9/9 1000 м
[Cb cap]
+22.6 +13.4 56 +26 +27 жарко 1008.2 985.0
ЮЗ 2 35 км в посл. час гроза {ливн. дождь} 9/5 1000 м
[Cb cap Ac trans Ci ing]
+23.1 +13.0 53 +26 +30 жарко 1008.3 985.2
В 2 35 км в посл. час ливневой дождь 9/9 1000 м
[Cb cap]
+20.9 +15.7 72 +25 +26 комфорт 1008.4 985.1
В 3 30 км {гроза, ливн. дождь} 9/8 1000 м
[Cb cap Ac As]
+19.8 +15.9 78 +22 +23 комфорт 1008.8 985.4
ЮВ 3-9 {9} 3700 м гроза, ливневой дождь 10/9 1000 м
[Cb cap]
+18.0 +16.0 88 +18 +18 1009.3 985.8
Ю 2 {10} 7000 м слаб. ливневой дождь, в посл. час гроза 10/9 600 м
[Cb cap]
+16.1 +15.3 95 +16 +16 1009.1 985.4
Ю 2 {10} 6000 м ливневой дождь {гроза} 10/9 600 м
[Cb cap]
+16.4 +16.1 98 +16 +16 1009.3 985.6 +16.0 +25.6 17
В 1 11 км слаб. дождь н/о +16.6 +16.4 99 +17 +17 1010.2 986.5
ЮВ 1 8000 м в посл. час морось н/о +16.5 +16.3 99 +17 +17 1010.6 986.9
штиль 0 6000 м дымка н/о +16.5 +16.3 99 +16 +16 1010.4 986.7
З 1 6000 м дымка н/о +16.3 +16.1 99 +17 +17 1010.5 986.8
З 2 18 км слаб. морось н/о +15.7 +15.4 98 +16 +16 1010.8 987.0
З 3 40 км в посл. час дождь н/о +15.0 +14.2 95 +14 +14 1011.1 987.3 1
З 2 30 км н/о +14.4 +13.8 96 +14 +14 1011.5 987.6
З 2 28 км н/о +14.3 +13.7 96 +14 +14 1011.9 988.0
З 1 20 км н/о +14.2 +13.6 96 +14 +14 1012.4 988.5
З 2 23 км н/о +14.5 +13.4 93 +14 +14 1012.8 988.9
З 2 22 км н/о +15.3 +13.3 88 +15 +15 1013.0 989.2
З 2 17 км 10/9 600 м
[Sc]
+15.5 +13.0 85 +15 +16 1013.5 989.7 +14.1 +16.7 1 17.8
З 3 20 км 9/9 300 м
[Cu Sc]
+15.8 +12.7 82 +15 +16 1013.9 990.1
З 3 21 км 10/9 480 м
[Cu Sc]
+16.8 +13.1 79 +17 +17 1014.3 990.5
З 2 27 км 10/9 300 м
[Cu Sc]
+17.1 +12.6 75 +17 +18 1014.9 991.2
З 2 26 км 9/9 600 м
[Cu Sc]
+17.6 +12.7 73 +18 +20 1015.3 991.6
З 2 30 км 9/5 600 м
[Cu Sc Ac trans Cs]
+19.1 +12.6 66 +21 +26 комфорт 1015.4 991.8
З 2 30 км 9/9 600 м
[Cu Sc]
+19.8 +12.8 64 +22 +24 комфорт 1015.4 991.9
СЗ 2 30 км 9/9 600 м
[Cu Sc]
+19.8 +12.1 61 +22 +23 комфорт 1015.5 992.0
СЗ 3 30 км 9/5 600 м
[Cu Sc Cs]
+20.2 +13.4 65 +23 +26 комфорт 1015.5 992.0
СЗ 2 35 км 9/3 600 м
[Cu med, cong Ac trans Cs]
+19.6 +12.6 64 +22 +24 комфорт 1016.1 992.5
СЗ 2 35 км 9/4 600 м
[Cu med, cong Ac trans Cs]
+20.5 +12.2 59 +23 +24 комфорт 1015.8 992.3
СЗ 2 30 км 9/1 600 м
[Sc diur, vesp Ac trans Cs]
+19.9 +12.2 61 +22 +23 комфорт 1016.1 992.6
СЗ 2 30 км 9/1 600 м
[Sc diur, vesp Ac trans Cs]
+18.7 +12.0 65 +20 +20 1016.3 992.7 +15.4 +20.9
С 1 20 км н/о +17.0 +12.9 77 +18 +18 1017.1 993.3
З 1 9000 м н/о +14.8 +13.2 90 +15 +15 1017.6 993.6
штиль 0 5000 м дымка н/о +13.6 +12.8 95 +13 +13 1018.0 993.9
штиль 0 3300 м дымка н/о +13.0 +12.5 97 +12 +12 1018.4 994.2
С 1 3000 м дымка н/о +12.7 +12.2 97 +13 +13 1018.6 994.4
З 1 1600 м дымка н/о +12.1 +11.8 98 +12 +12 1018.7 994.5
СЗ 1 2000 м дымка н/о +11.8 +11.5 98 +12 +12 1018.9 994.6
С 1 4500 м дымка н/о +12.5 +12.3 99 +12 +12 1018.8 994.6
СВ 1 1200 м дымка н/о +11.4 +11.2 99 +11 +11 1019.0 994.7
штиль 0 1400 м дымка н/о +11.4 +11.2 99 +11 +11 1019.2 994.9
штиль 0 2500 м дымка н/о +13.2 +13.0 99 +13 +13 1019.3 995.1
С 2 5000 м дымка 9/0
[Ac As]
+15.3 +14.5 95 +15 +17 1019.3 995.3 +11.2 +18.8
В 2 7000 м дымка 9/0
[Ac cast]
+17.5 +15.3 87 +18 +21 1019.3 995.5
СВ 2 11 км 9/0
[Ac As]
+18.8 +14.9 78 +20 +25 1019.2 995.5
В 2 22 км 9/3 600 м
[Cu med, cong Ac As Ci sp]
+21.2 +14.6 66 +24 +30 комфорт 1018.8 995.3
В 2 30 км 8/5 600 м
[Cu med, cong Ci sp]
+22.8 +13.8 57 +26 +33 жарко 1018.4 995.0
СВ 3 26 км 8/6 1000 м
[Cu med, cong Ci sp]
+23.7 +13.6 53 +26 +31 жарко 1017.5 994.2
СВ 4 28 км 8/6 1000 м
[Cb calv Ci ing]
+24.6 +12.2 46 +26 +30 жарко 1016.6 993.4
В 3 30 км гроза без осадков {ливн. дождь} 9/8 1000 м
[Cb cap Ci sp]
+24.2 +12.8 49 +26 +28 жарко 1016.0 992.8
ЮЗ 2 {15} 13 км гроза, ливневой дождь 10/9 1000 м
[Cb cap]
+15.6 +13.8 89 +15 +16 1019.1 995.1
Ю 3 {15} 15 км гроза, ливневой дождь 9/6 600 м
[Cb cap Ac As]
+15.5 +15.2 98 +15 +16 1019.2 995.2
Ю 1 24 км в посл. час гроза {ливн. дождь} 9/3 300 м
[Cb cap Ac As]
+16.3 +16.1 99 +17 +18 1017.8 993.9
В 3 15 км в посл. час ливневой дождь 9/1 600 м
[Cb calv Ac As]
+16.7 +16.4 98 +16 +17 1018.7 994.8
ЮВ 1 {15} 27 км {гроза, ливн. дождь} 9/0
[Ac trans Cs]
+16.4 +15.6 95 +17 +17 1018.1 994.2 +14.5 +25.3 8
ЮВ 1 17 км н/о +15.1 +14.5 96 +16 +16 1018.2 994.2
ЮВ 2 15 км н/о +14.5 +14.0 97 +14 +14 1019.0 994.9
ЮВ 2 14 км н/о +14.1 +13.6 97 +13 +13 1019.3 995.2
В 1 11 км н/о +13.9 +13.6 98 +14 +14 1019.3 995.2
ЮВ 2 7000 м дымка н/о +13.5 +13.2 98 +13 +13 1019.5 995.4
ЮВ 2 7000 м дымка н/о +13.4 +13.1 98 +13 +13 1019.7 995.5
Ю 1 6000 м дымка н/о +12.9 +12.6 98 +13 +13 1019.2 995.0
Ю 1 3100 м дымка н/о +12.4 +12.1 98 +12 +12 1019.1 994.9
В 2 5000 м дымка н/о +12.5 +12.3 99 +11 +11 1019.4 995.2
ЮВ 2 7000 м дымка н/о +13.5 +13.2 98 +13 +13 1019.8 995.6
ЮВ 1 16 км н/о +15.4 +13.8 90 +16 +16 1019.6 995.6
Ю 1 24 км 3/0
[Ci sp]
+17.1 +14.2 83 +18 +24 1019.6 995.7 +12.3 +17.2 8.2
Ю 2 30 км 3/1 300 м
[Cu hum Ci sp]
+18.8 +14.3 75 +20 +28 1019.6 995.9
Ю 2 30 км 6/3 600 м
[Cu med, cong Ci sp]
+20.6 +14.7 69 +24 +31 комфорт 1019.5 995.9
Ю 2 40 км 9/1 600 м
[Cu med, cong Cs]
+20.1 +14.7 71 +23 +34 комфорт 1019.8 996.2
ЮВ 2 30 км 9/3 1000 м
[Cu med, cong Ac trans Cs]
+22.2 +13.5 58 +25 +32 комфорт 1019.4 996.0
ЮВ 2 40 км 9/4 1000 м
[Cu med, cong Cs]
+22.7 +13.2 55 +26 +34 жарко 1019.1 995.7
Ю 2 40 км 8/5 1000 м
[Cb calv Ci sp]
+23.5 +12.5 50 +25 +32 комфорт 1018.8 995.5
Ю 2 27 км 8/6 1500 м
[Cb cap Ci fib]
+24.8 +11.4 43 +26 +31 жарко 1018.1 994.9
Ю 1 29 км гроза без осадков 9/9 1500 м
[Cb cap]
+25.4 +12.6 45 +27 +28 жарко 1017.4 994.3
СЗ 3 {10} 13 км гроза, ливневой дождь 10/9 600 м
[Cb cap]
+17.6 +12.1 70 +18 +18 1019.5 995.7
С 2 50 км в посл. час гроза {ливн. дождь} 9/5 600 м
[Cb cap Ac As]
+17.0 +12.1 73 +17 +18 1018.2 994.4
СВ 1 35 км 9/4 600 м
[Cb cap Ac As Cs]
+17.7 +11.9 69 +19 +19 1018.5 994.7
В 1 {10} 50 км {гроза, ливн. дождь} 9/5 1000 м
[Cb cap Ac As Cs]
+16.6 +12.7 78 +17 +18 1019.4 995.5 +16.4 +25.5 2
СВ 1 30 км н/о +15.4 +13.4 88 +16 +16 1019.5 995.5
ЮВ 1 12 км н/о +15.1 +14.0 93 +16 +16 1019.6 995.6
штиль 0 14 км н/о +14.2 +13.1 93 +14 +14 1019.7 995.6
В 2 22 км н/о +14.4 +13.1 92 +14 +14 1019.6 995.5
Ю 1 40 км н/о +14.7 +12.4 86 +15 +15 1020.2 996.1
ЮВ 2 24 км н/о +13.8 +12.4 91 +13 +13 1019.9 995.8
Ю 1 14 км н/о +12.7 +11.8 94 +13 +13 1019.6 995.4
Ю 1 7000 м дымка н/о +12.0 +11.4 96 +12 +12 1019.6 995.3
В 1 5000 м дымка н/о +11.8 +11.3 97 +12 +12 1019.9 995.6
штиль 0 10 км н/о +12.6 +12.0 96 +12 +12 1020.1 995.9
В 1 18 км н/о +14.9 +12.8 87 +15 +15 1020.2 996.2
ЮВ 2 22 км 8/1 1000 м
[Sc Ac trans Cs]
+18.0 +14.5 80 +19 +21 1020.6 996.8 +11.6 +18.0 2.2
ЮВ 2 30 км 8/1 1500 м
[Sc Ac trans Cs]
+20.4 +12.6 61 +23 +28 комфорт 1020.8 997.2
ЮВ 3 30 км 8/0
[Ac trans Cs]
+21.7 +12.0 54 +24 +32 комфорт 1020.8 997.3
ЮВ 3 29 км 8/0
[Cs]
+23.0 +12.0 50 +26 +36 жарко 1020.6 997.2
ЮВ 2 30 км 5/0
[Ci sp]
+24.1 +10.4 42 +25 +40 комфорт 1020.3 997.0
СВ 2 30 км 5/1 1500 м
[Cu med, cong Ci sp]
+24.9 +10.4 40 +26 +40 жарко 1020.0 996.8
ЮВ 2 35 км 5/3 1500 м
[Cu med, cong Ci sp]
+26.0 +10.6 38 +27 +37 жарко 1019.4 996.3
В 2 40 км 6/4 1500 м
[Cb calv Ci sp]
+25.7 +10.3 38 +27 +34 жарко 1019.1 995.9
В 2 27 км 8/6 1500 м
[Cb cap Ac cuf Ci sp]
+26.5 +10.2 36 +27 +30 жарко 1018.7 995.6
В 4 45 км гроза без осадков {ливн. дождь} 9/8 1000 м
[Cb cap Ac cuf Ci sp]
+24.7 +9.8 39 +26 +26 жарко 1018.5 995.3
В 3-8 {8} 45 км гроза без осадков 9/9 1000 м
[Cb cap]
+23.2 +11.3 47 +25 +26 комфорт 1019.1 995.7
З 2 30 км гроза, ливневой дождь 9/9 1000 м
[Cb cap]
+17.6 +13.5 77 +18 +18 1019.7 995.9
С 2 {8} 45 км в посл. час ливневой дождь {гроза} 9/5 1000 м
[Cb cap Ac As]
+18.6 +13.7 73 +20 +20 1020.7 996.9 +17.5 +26.8 0.5
СЗ 2 35 км н/о +17.7 +13.6 77 +18 +18 1020.9 997.1
З 1 35 км н/о +16.5 +14.0 85 +17 +17 1021.1 997.2
В 1 23 км н/о +15.7 +14.2 91 +16 +16 1021.1 997.1
Ю 2 23 км н/о +14.9 +13.4 91 +15 +15 1021.7 997.6
СВ 1 15 км н/о +14.3 +13.3 94 +15 +15 1021.4 997.3
В 1 15 км н/о +14.3 +12.7 90 +15 +15 1020.8 996.7 0.0
В 1 15 км н/о +13.4 +12.6 95 +13 +13 1020.7 996.5
В 1 24 км н/о +13.4 +12.1 92 +14 +14 1020.5 996.3
ЮВ 1 16 км н/о +12.7 +11.8 94 +13 +13 1020.5 996.3
Ю 1 30 км н/о +14.8 +12.3 85 +15 +15 1020.5 996.4
ЮВ 1 27 км н/о +16.9 +13.2 79 +18 +18 1020.7 996.8
Ю 2 30 км 1/0
[Ci fib]
+19.6 +13.3 67 +22 +27 комфорт 1020.6 996.9 +12.3 +19.8 0.0 0.5
ЮВ 2 35 км 1/0
[Ci fib]
+21.6 +13.8 61 +24 +33 комфорт 1020.5 997.0
ЮВ 2 35 км 1/0
[Ci fib]
+23.1 +13.0 53 +26 +38 жарко 1020.2 996.8
ЮВ 3 30 км 1/1 1500 м
[Cu hum Ci fib]
+24.2 +11.5 45 +26 +37 жарко 1020.0 996.7
ЮВ 3 28 км 3/3 1500 м
[Cu med, cong Ci fib]
+25.5 +10.1 38 +26 +36 жарко 1019.5 996.3
ЮВ 2 30 км 5/5 2000 м
[Cu med, cong]
+26.6 +11.5 39 +28 +36 жарко 1018.8 995.7
ЮВ 4 29 км 5/5 2000 м
[Cu med, cong Ci fib]
+25.9 +8.4 33 +26 +31 жарко 1018.3 995.2
ЮВ 3 30 км 4/4 2000 м
[Cu med, cong Ci fib]
+27.1 +7.5 29 +27 +33 жарко 1017.7 994.7
В 4 30 км 3/3 2000 м
[Cu med, cong Ac cuf]
+27.1 +5.4 25 +26 +31 жарко 1017.2 994.2
В 4 35 км 3/1 2000 м
[Cu med, cong Ac cuf Ci fib]
+26.9 +5.8 26 +26 +30 жарко 1016.7 993.7
В 3 35 км 3/1 2000 м
[Cu med, cong Ac cuf Ci fib]
+26.4 +5.3 26 +26 +28 жарко 1016.3 993.3
ЮВ 3 35 км 4/1 2000 м
[Sc diur, vesp Ac cast Ci fib]
+25.0 +5.7 29 +25 +26 комфорт 1016.4 993.2
В 2 50 км 4/1 2000 м
[Sc diur, vesp Ac cast Ci fib]
+22.9 +5.3 32 +23 +23 комфорт 1016.6 993.3 +19.6 +27.6
ЮВ 2 50 км н/о +20.8 +5.2 36 +22 +22 комфорт 1017.0 993.5
ЮВ 2 45 км н/о +19.0 +7.1 46 +20 +20 1017.5 993.8
В 2 45 км н/о +17.8 +7.5 51 +18 +18 1017.4 993.7
ЮВ 2 40 км н/о +17.7 +6.8 49 +18 +18 1017.3 993.5
ЮВ 2 11 км н/о +16.8 +6.9 52 +17 +17 1017.1 993.3
В 1 22 км н/о +14.7 +7.7 63 +15 +15 1017.4 993.4
В 2 30 км н/о +14.0 +7.7 66 +14 +14 1017.2 993.1
В 1 35 км н/о +12.7 +8.0 73 +13 +13 1016.9 992.7
ЮВ 1 30 км н/о +11.6 +8.1 79 +11 +11 1016.8 992.6
ЮВ 1 30 км н/о +14.3 +8.0 66 +15 +15 1016.5 992.5
ЮВ 1 35 км н/о +15.9 +9.1 64 +17 +17 1016.4 992.5
ЮВ 1 26 км 1/0
[Ci sp]
+18.5 +11.3 63 +20 +26 1016.3 992.6 +11.4 +22.9
ЮВ 2 35 км 1/0
[Ci fib]
+21.4 +10.8 51 +23 +31 комфорт 1015.9 992.5
ЮВ 2 35 км 3/1 1500 м
[Sc Ac trans Ci fib]
+23.5 +10.2 43 +25 +34 комфорт 1015.8 992.5
ЮВ 2 40 км 3/1 1500 м
[Cu hum Ci sp]
+25.0 +9.7 38 +26 +38 жарко 1015.7 992.6
ЮВ 2 30 км 5/4 2000 м
[Cu med, cong Ac cuf Ci fib]
+26.3 +9.6 35 +27 +36 жарко 1015.2 992.2
ЮВ 2 30 км 9/4 2000 м
[Cb calv Ac cuf Ci ing]
+25.9 +8.8 34 +26 +32 жарко 1014.6 991.6
Ю 4 {11} 30 км гроза, ливневой дождь 9/5 1500 м
[Cb cap Ac cuf]
+21.4 +9.9 48 +23 +25 комфорт 1015.5 992.1 0.0
В 7-13 {13} 12 км слаб. ливневой дождь, в посл. час гроза 9/5 600 м
[Cb cap Ac cuf Ci ing]
+19.5 +9.4 52 +20 +21 1015.5 991.9
Ю 1 29 км слаб. ливневой дождь 9/3 1000 м
[Cb calv Ac As]
+21.1 +11.4 54 +23 +26 комфорт 1014.6 991.2
В 1 {13} 40 км в посл. час ливневой дождь {гроза} 9/1 1000 м
[Cb calv Ac As]
+20.8 +12.2 58 +24 +27 комфорт 1014.3 990.9
Местоположение метеостанции Велюнь (Польша): широта 51.22 долгота 18.57 высота над уровнем моря 201 м.
В архиве по умолчанию представлена погода в Велюни за последнюю неделю. Архивные данные за месяц целиком и за предыдущие месяцы, начиная с января 2011 года, Вы можете получить, выбрав интересующий диапазон дат из раскрывающегося списка и нажав кнопку "Найти!".
*Определитесь, кто Вы:
Внимание! Время в таблицах - всемирное. Для получения местного времени необходимо прибавить поправку, которая равна 1 ч.
Некоторые строки с данными для отдельных станций могут быть выделены курсивом. Это означает, что фактические данные отсутствуют по различным причинам, а приведенные значения являются расчетными модельными данными для данного пункта наблюдений.
Смотрите также архив погоды в соседних городах и на ближайших метеорологических станциях:
Партнеры нашего сайта:      
Пояснения к столбцам:
  • Ветер - указаны скорость ветра в м/с - средняя за 10 мин, порывы в срок и между сроками (в фигурных скобках) и направление, откуда дует ветер: С - северный,
  • СВ - северо-восточный, В - восточный, ЮВ - юго-восточный, Ю - южный, ЮЗ - юго-западный, З - западный, СЗ - северо-западный.
  • Видимость - горизонтальная дальность видимости в метрах или километрах. При видимости от 1 до 10 км при отсутствии осадков обычно наблюдается дымка, при ухудшении видимости до 1 км и менее - туман. В сухую погоду видимость может ухудшаться дымом, пылью или мглою.
  • Явления - указаны атмосферные явления, наблюдавшиеся в срок или в последний час перед сроком; фигурными скобками обозначены явления, наблюдавшиеся между сроками (за 1-3 часа до срока); квадратными скобками обозначены град или гололедные отложения с указанием их диаметра в мм.
  • Облачность - указаны через наклонную черту общая и нижняя облачность в баллах и высота нижней границы облаков в метрах; квадратными скобками обозначены формы облаков: Ci - перистые, Cs - перисто-слоистые, Cc - перисто-кучевые, Ac - высококучевые, As - высокослоистые, Sc - слоисто-кучевые, Ns - слоисто-дождевые, Cu - кучевые, Cb - кучево-дождевые. Подробнее классификацию облаков см. в Атласе облаков (PDF).
  • T - Температура воздуха - температура, измеренная на высоте 2 м над землей.
  • Td - Температура точки росы - температура, при понижении до которой содержащийся в воздухе водяной пар достигнет насыщения.
  • f - Относительная влажность воздуха - влажноcть воздуха, измеренная на высоте 2 м над землей.
  • Te - Эффективная температура - температура, которую ощущает одетый по сезону человек в тени. Характеристика душности погоды. При расчете учитывается влияние влажности воздуха и скорости ветра на теплоощущения человека.
  • Tes - Эффективная температура на солнце - температура, которую ощущает человек, с поправкой на солнечный нагрев. Характеристика знойности погоды. Зависит от высоты солнца над горизонтом, облачности и скорости ветра. Ночью, в пасмурную погоду, а также при ветре 12 м/с и более поправка равна нулю.
  • P - Атмосферное давление - приведенное к уровню моря атмосферное давление.
  • Po - Атмосферное давление - измеренное на уровне метеостанции атмосферное давление.
  • Tmin - Минимальная температура - минимум температуры воздуха на высоте 2 м над землей.
  • Tmax - Максимальная температура - максимум температуры воздуха на высоте 2 м над землей.
  • R - Количество осадков - Количество выпавших осадков за период времени, мм. При наведении курсора мыши на число - период времени, за который выпало указанное количество осадков.
  • R24 - Количество осадков - Количество выпавших осадков за 24 часа, мм.
  • S - Снежный покров - Высота снежного покрова, см. При наведении курсора мыши на число - состояние снежного покрова и степень покрытия местности в баллах.